User: anonymous   Login
Location: El Corozo
(10.5833°N, 66.9667°W)
Time: 16:30:43
(UTC+00:00)
Language:

Cosmos 1777 Rocket - Orbit

View from above orbital plane
View from above orbital plane
View from above satellite
View from above satellite

Ground track
Ground track

The orbit data is extracted from the following two-line orbital elements,

1 16953U 86070B   24200.11893085  .00000822  00000-0  27951-3 0  9997
2 16953  74.0102 186.7325 0011554 157.0825 203.0847 14.38131421983918
Epoch (UTC): 18 July 2024 02:51:15
Eccentricity: 0.0011554
inclination: 74.0102°
perigee height: 756 km
apogee height: 773 km
right ascension of ascending node: 186.7325°
argument of perigee: 157.0825°
revolutions per day: 14.38131421
mean anomaly at epoch: 203.0847°
orbit number at epoch: 98391

The dashed part of the orbit path shows where the satellite is in the earth's shadow,  

DLR